Weather History for Langdon, ND

Change the Weather History Date:

Saturday, October 29, 2011

  Actual Average (KDVL) Record (KDVL)
Temperature  
Mean Temperature 32 °F -  
Max Temperature 46 °F 45 °F 73 °F (1950)
Min Temperature 17 °F 27 °F 7 °F (1988)
Degree Days  
Heating Degree Days 34    
Moisture  
Dew Point 23 °F    
Average Humidity 68    
Maximum Humidity 100    
Minimum Humidity 43    
Precipitation  
Precipitation 0.00 in - - ()
Sea Level Pressure  
Sea Level Pressure 29.83 in    
Wind  
Wind Speed 10 mph (South)    
Max Wind Speed 22 mph    
Max Gust Speed 29 mph    
Visibility 10 miles    
Events      
Averages and records for this station are not official NWS values.
T = Trace of Precipitation, MM = Missing Value Source: NWS Daily Summary

Daily Weather History Graph

Daily Weather History Graph

Search for Another Location

Airport:

Trip Planner

Search our weather history database for the weather conditions in past years. The results will help you decide how hot, cold, wet, or windy it might be!

Date:

Astronomy

Oct. 29, 2011 Rise Set
Actual Time 8:15 AM CDT 6:18 PM CDT
Civil Twilight 7:42 AM CDT 6:51 PM CDT
Nautical Twilight 7:05 AM CDT 7:28 PM CDT
Astronomical Twilight 6:28 AM CDT 8:04 PM CDT
Moon 11:55 AM CDT (10/29) 8:26 PM CDT (10/29)
Length of Visible Light 11h 08m
Length of Day
10h 03m
Waxing Crescent, 12% of the Moon is Illuminated
Oct 29
Waxing Crescent
Nov 2
First Quarter
Nov 10
Full
Nov 18
Last Quarter
Nov 25
New

Hourly Weather History & Observations

Time (CDT) Temp. Windchill Dew Point Humidity Pressure Visibility Wind Dir Wind Speed Gust Speed Precip Events Conditions
12:15 AM 21.2 °F 14.9 °F 19.4 °F 93% 29.98 in 10.0 mi SW 4.6 mph - N/A   Clear
12:35 AM 21.2 °F 13.6 °F 19.4 °F 93% 29.98 in 10.0 mi SW 5.8 mph - N/A   Clear
12:55 AM 21.2 °F 12.6 °F 17.6 °F 86% 29.98 in 10.0 mi SSW 6.9 mph - N/A   Clear
1:35 AM 19.4 °F 12.8 °F 17.6 °F 93% 29.97 in 10.0 mi SSW 4.6 mph - N/A   Clear
1:55 AM 19.4 °F 11.5 °F 17.6 °F 93% 29.97 in 10.0 mi SSW 5.8 mph - N/A   Clear
2:15 AM 19.4 °F 12.8 °F 17.6 °F 93% 29.96 in 10.0 mi South 4.6 mph - N/A   Clear
2:35 AM 17.6 °F 12.3 °F 15.8 °F 93% 29.96 in 10.0 mi SSE 3.5 mph - N/A   Clear
2:55 AM 17.6 °F 10.7 °F 15.8 °F 93% 29.96 in 10.0 mi South 4.6 mph - N/A   Clear
3:15 AM 19.4 °F 12.8 °F 17.6 °F 93% 29.96 in 10.0 mi South 4.6 mph - N/A   Clear
3:35 AM 19.4 °F 14.3 °F 19.4 °F 100% 29.96 in 10.0 mi SSW 3.5 mph - N/A   Clear
3:55 AM 19.4 °F 12.8 °F 17.6 °F 93% 29.95 in 10.0 mi South 4.6 mph - N/A   Clear
4:15 AM 17.6 °F 10.7 °F 15.8 °F 93% 29.94 in 10.0 mi SSE 4.6 mph - N/A   Clear
4:35 AM 17.6 °F 9.3 °F 17.6 °F 100% 29.93 in 10.0 mi SSE 5.8 mph - N/A   Clear
5:15 AM 21.2 °F 10.9 °F 19.4 °F 93% 29.90 in 10.0 mi SSE 9.2 mph - N/A   Clear
5:35 AM 23.0 °F 13.9 °F 21.2 °F 93% 29.91 in 10.0 mi SSE 8.1 mph - N/A   Clear
5:55 AM 23.0 °F 12.4 °F 19.4 °F 86% 29.91 in 10.0 mi SSE 10.4 mph - N/A   Clear
6:15 AM 24.8 °F 14.0 °F 21.2 °F 86% 29.91 in 10.0 mi SSE 11.5 mph - N/A   Clear
6:35 AM 24.8 °F 15.3 °F 21.2 °F 86% 29.90 in 10.0 mi SSE 9.2 mph - N/A   Clear
6:55 AM 24.8 °F 14.6 °F 21.2 °F 86% 29.90 in 10.0 mi South 10.4 mph - N/A   Clear
7:15 AM 24.8 °F 14.6 °F 21.2 °F 86% 29.90 in 10.0 mi SSE 10.4 mph - N/A   Clear
7:35 AM 24.8 °F 14.6 °F 21.2 °F 86% 29.89 in 10.0 mi SSE 10.4 mph - N/A   Clear
7:55 AM 26.6 °F 16.2 °F 23.0 °F 86% 29.89 in 10.0 mi South 11.5 mph - N/A   Clear
8:15 AM 26.6 °F 16.8 °F 23.0 °F 86% 29.89 in 10.0 mi South 10.4 mph - N/A   Clear
8:35 AM 28.4 °F 18.5 °F 24.8 °F 86% 29.89 in 10.0 mi South 11.5 mph - N/A   Clear
8:55 AM 28.4 °F 18.5 °F 26.6 °F 93% 29.88 in 10.0 mi SSE 11.5 mph - N/A   Clear
9:15 AM 30.2 °F 21.3 °F 26.6 °F 86% 29.88 in 10.0 mi SSE 10.4 mph - N/A   Clear
9:35 AM 32.0 °F 23.0 °F 28.4 °F 87% 29.87 in 10.0 mi SSE 11.5 mph - N/A   Clear
9:55 AM 35.6 °F 27.1 °F 28.4 °F 75% 29.86 in 10.0 mi SSE 12.7 mph - N/A   Clear
10:15 AM 37.4 °F 28.9 °F 28.4 °F 70% 29.85 in 10.0 mi South 13.8 mph - N/A   Clear
10:35 AM 39.2 °F 30.5 °F 28.4 °F 65% 29.84 in 10.0 mi South 16.1 mph - N/A   Clear
10:55 AM 39.2 °F 30.5 °F 26.6 °F 61% 29.83 in 10.0 mi South 16.1 mph - N/A   Clear
11:15 AM 39.2 °F 30.5 °F 26.6 °F 61% 29.82 in 10.0 mi South 16.1 mph 19.6 mph N/A   Clear
11:35 AM 41.0 °F 32.5 °F 26.6 °F 57% 29.82 in 10.0 mi SSE 17.3 mph 21.9 mph N/A   Clear
11:55 AM 42.8 °F 34.5 °F 26.6 °F 53% 29.82 in 10.0 mi South 18.4 mph 26.5 mph N/A   Clear
12:15 PM 42.8 °F 34.8 °F 26.6 °F 53% 29.81 in 10.0 mi South 17.3 mph 25.3 mph N/A   Partly Cloudy
12:35 PM 42.8 °F 33.8 °F 26.6 °F 53% 29.80 in 10.0 mi South 21.9 mph 27.6 mph N/A   Mostly Cloudy
12:55 PM 44.6 °F 36.4 °F 24.8 °F 46% 29.80 in 10.0 mi South 20.7 mph 26.5 mph N/A   Mostly Cloudy
1:15 PM 44.6 °F 36.9 °F 24.8 °F 46% 29.79 in 10.0 mi South 18.4 mph 23.0 mph N/A   Partly Cloudy
1:35 PM 44.6 °F 37.2 °F 24.8 °F 46% 29.78 in 10.0 mi South 17.3 mph 28.8 mph N/A   Partly Cloudy
1:55 PM 44.6 °F 37.4 °F 24.8 °F 46% 29.78 in 10.0 mi South 16.1 mph 24.2 mph N/A   Clear
2:15 PM 44.6 °F 36.1 °F 23.0 °F 43% 29.77 in 10.0 mi South 21.9 mph 27.6 mph N/A   Clear
2:35 PM 44.6 °F 36.6 °F 24.8 °F 46% 29.76 in 10.0 mi South 19.6 mph 27.6 mph N/A   Mostly Cloudy
2:55 PM 44.6 °F 36.4 °F 24.8 °F 46% 29.75 in 10.0 mi South 20.7 mph 26.5 mph N/A   Mostly Cloudy
3:15 PM 46.4 °F 38.7 °F 24.8 °F 43% 29.75 in 10.0 mi South 20.7 mph 27.6 mph N/A   Mostly Cloudy
3:35 PM 44.6 °F 36.1 °F 23.0 °F 43% 29.75 in 10.0 mi South 21.9 mph 26.5 mph N/A   Mostly Cloudy
3:55 PM 44.6 °F 36.6 °F 23.0 °F 43% 29.74 in 10.0 mi South 19.6 mph 24.2 mph N/A   Mostly Cloudy
4:15 PM 44.6 °F 36.6 °F 24.8 °F 46% 29.73 in 10.0 mi SSE 19.6 mph 28.8 mph N/A   Mostly Cloudy
4:35 PM 44.6 °F 36.9 °F 23.0 °F 43% 29.73 in 10.0 mi SSE 18.4 mph 28.8 mph N/A   Partly Cloudy
4:55 PM 44.6 °F 36.4 °F 24.8 °F 46% 29.73 in 10.0 mi SSE 20.7 mph 24.2 mph N/A   Partly Cloudy
5:15 PM 44.6 °F 36.6 °F 24.8 °F 46% 29.73 in 10.0 mi SSE 19.6 mph 24.2 mph N/A   Scattered Clouds
5:35 PM 44.6 °F 36.6 °F 24.8 °F 46% 29.73 in 10.0 mi South 19.6 mph 26.5 mph N/A   Scattered Clouds
5:55 PM 44.6 °F 36.9 °F 24.8 °F 46% 29.73 in 10.0 mi South 18.4 mph 24.2 mph N/A   Scattered Clouds
6:15 PM 42.8 °F 35.8 °F 24.8 °F 49% 29.72 in 10.0 mi South 13.8 mph 21.9 mph N/A   Mostly Cloudy
6:35 PM 42.8 °F 34.8 °F 26.6 °F 53% 29.72 in 10.0 mi SSE 17.3 mph 24.2 mph N/A   Mostly Cloudy
7:15 PM 42.8 °F 35.8 °F 26.6 °F 53% 29.72 in 10.0 mi South 13.8 mph - N/A   Overcast
7:35 PM 42.8 °F 35.8 °F 26.6 °F 53% 29.72 in 10.0 mi SSE 13.8 mph - N/A   Mostly Cloudy
7:55 PM 42.8 °F 35.4 °F 26.6 °F 53% 29.72 in 10.0 mi South 15.0 mph - N/A   Overcast
8:15 PM 42.8 °F 35.1 °F 28.4 °F 57% 29.73 in 10.0 mi South 16.1 mph - N/A   Overcast
8:35 PM 42.8 °F 35.4 °F 28.4 °F 57% 29.72 in 10.0 mi South 15.0 mph 19.6 mph N/A   Overcast
8:55 PM 42.8 °F 35.1 °F 28.4 °F 57% 29.71 in 10.0 mi South 16.1 mph - N/A   Overcast
9:15 PM 42.8 °F 34.8 °F 28.4 °F 57% 29.71 in 10.0 mi South 17.3 mph - N/A   Overcast
9:35 PM 42.8 °F 34.8 °F 26.6 °F 53% 29.71 in 10.0 mi South 17.3 mph - N/A   Overcast
9:55 PM 41.0 °F 33.5 °F 26.6 °F 57% 29.71 in 10.0 mi South 13.8 mph - N/A   Overcast
10:15 PM 39.2 °F 32.0 °F 28.4 °F 65% 29.70 in 10.0 mi South 11.5 mph - N/A   Mostly Cloudy
10:35 PM 39.2 °F 33.0 °F 28.4 °F 65% 29.70 in 10.0 mi South 9.2 mph - N/A   Mostly Cloudy
10:55 PM 39.2 °F 32.0 °F 28.4 °F 65% 29.70 in 10.0 mi South 11.5 mph - N/A   Mostly Cloudy
11:15 PM 39.2 °F 32.5 °F 32.0 °F 75% 29.70 in 10.0 mi WSW 10.4 mph - N/A   Overcast
11:35 PM 39.2 °F 33.0 °F 33.8 °F 81% 29.70 in 10.0 mi West 9.2 mph - N/A   Overcast
11:55 PM 39.2 °F 32.5 °F 33.8 °F 81% 29.70 in 10.0 mi West 10.4 mph - N/A   Overcast